Temp
65 65 65 65 65 65 65 65 65 65 65 64 64 65 65 65 65 65 60 66 70 70 70 66 65 64 65 64 67 67 50 50 56 59 63 74 68 72 72 71 74 72 68 71 69
65 65 65 65 65 65 65 65 65 65 65 65 65 65 64 64 64 62 68 70 70 69 64 59 58 59 57 61 62 57 49 54 65 70 68 73 72 69 69 68 66 67 66 67 67
64 64 64 65 65 65 65 64 64 64 65 65 65 65 64 63 58 58 67 69 68 68 67 63 60 56 53 61 60 58 51 63 68 73 73 70 70 72 68 63 68 65 63 65 65
64 64 64 64 64 64 64 64 64 64 65 65 65 64 64 63 43 61 66 67 66 66 63 57 55 50 49 54 62 54 60 65 68 65 67 69 72 67 67 62 71 73 68 66 64
63 64 63 63 63 63 63 64 65 65 65 64 64 64 62 58 54 65 65 66 65 62 58 54 50 49 47 58 60 56 61 64 64 63 70 72 66 64 63 68 73 73 69 65 67
63 63 62 62 63 63 63 64 65 65 64 64 64 63 59 48 64 62 63 64 62 60 56 55 53 53 50 59 59 62 61 61 62 64 68 66 64 67 63 69 70 70 67 67 67
63 62 62 62 62 62 63 64 65 65 64 65 65 67 57 52 64 62 62 61 61 58 53 56 57 50 57 58 65 65 55 56 60 62 61 65 57 59 65 68 67 68 68 68 69
62 62 62 61 62 62 62 63 64 64 64 65 65 65 52 64 64 65 67 63 62 59 57 58 58 55 57 65 62 56 54 46 56 60 59 58 49 60 66 66 64 66 67 67 68
61 61 61 61 61 61 61 63 64 64 65 66 64 63 53 65 60 64 64 59 58 59 60 64 61 59 61 54 48 51 41 46 49 61 58 56 52 61 65 66 63 63 64 65 66
60 60 60 60 60 60 61 62 65 64 67 71 72 58 61 57 63 64 65 63 57 59 57 56 55 52 54 48 37 44 46 49 47 55 57 53 53 59 63 64 62 62 62 63 64
59 59 59 59 60 60 62 64 61 60 63 57 58 58 60 66 68 61 63 61 60 56 51 55 46 40 50 52 52 55 53 49 51 55 54 54 54 57 60 58 59 61 61 62 63
59 58 59 59 60 60 61 62 57 58 53 63 64 62 65 66 57 59 66 56 55 50 55 50 42 51 55 56 53 55 51 46 50 55 52 54 53 57 59 58 59 60 62 62 63
58 58 59 59 59 61 61 58 63 63 53 59 62 61 60 63 57 58 62 59 55 51 52 45 48 55 56 51 51 49 48 47 47 51 53 53 48 52 57 57 58 58 58 60 61
58 58 58 58 58 63 58 62 63 63 44 49 57 60 63 62 55 64 64 58 56 50 51 47 55 55 52 49 48 44 50 54 50 45 34 48 32 47 51 53 56 54 54 55 56
57 58 58 59 62 60 59 63 63 57 28 53 56 69 64 57 57 57 63 60 51 52 50 41 46 48 46 46 49 44 51 50 51 46 39 43 35 43 51 50 52 54 55 56 57
57 58 59 62 62 60 62 61 57 40 26 41 57 55 56 58 58 60 58 60 56 52 51 47 52 49 48 52 51 52 48 49 48 45 30 37 34 34 42 50 53 55 56 57 57
57 57 62 66 57 62 61 55 39 32 51 44 47 53 53 51 54 54 52 48 43 37 38 46 46 49 52 47 50 49 44 30 30 26 29 40 32 41 49 52 55 55 55 56 56
56 56 60 63 63 61 56 49 32 44 44 53 52 52 48 50 51 53 51 45 49 47 41 35 34 43 50 45 40 43 40 30 28 26 29 39 29 38 52 54 55 57 56 56 55
55 60 62 61 62 58 52 36 36 44 50 48 51 47 47 51 48 50 46 45 47 48 38 40 34 47 48 49 47 43 34 42 32 31 29 33 40 46 49 49 51 52 54 52 54
58 61 59 62 61 55 47 41 43 51 51 52 44 47 43 46 47 47 45 47 47 51 50 46 33 44 48 48 47 43 46 36 32 28 28 31 33 32 34 47 51 51 51 53 55
57 56 59 62 58 54 39 41 49 54 53 49 47 47 47 45 46 44 44 46 49 48 50 46 41 37 43 42 40 41 39 41 40 37 28 26 32 43 42 49 50 51 54 54 54
57 52 59 58 50 50 43 50 48 51 53 52 50 50 47 47 44 44 42 44 50 49 44 45 42 31 38 44 46 43 42 43 31 33 35 32 29 50 49 51 53 53 56 54 55
55 56 60 58 46 43 48 50 52 51 50 51 49 50 50 46 41 46 46 49 50 47 42 45 40 29 31 37 42 39 43 44 43 39 32 29 32 51 49 47 50 47 50 55 55
54 50 55 56 55 51 47 48 47 50 51 52 51 51 49 47 48 44 46 48 48 48 48 46 42 37 30 35 40 34 40 41 40 28 33 36 40 42 46 47 49 51 52 51 52
54 49 49 46 49 50 50 50 48 46 50 51 48 49 47 43 45 44 46 46 47 47 46 44 35 31 37 42 41 40 40 42 36 38 31 39 41 45 47 47 49 51 53 53 53
50 50 51 50 51 49 45 47 49 48 49 48 46 49 48 45 45 43 46 45 44 43 44 45 35 34 35 41 39 35 40 41 42 43 43 43 43 47 49 49 49 49 50 50 50
54 55 52 47 50 48 49 49 50 49 49 52 50 47 45 47 48 48 48 48 46 44 44 42 38 32 29 36 37 33 40 41 40 42 43 37 43 48 46 48 47 47 49 49 50
MSLP
1017.60 1017.24 1016.85 1016.50 1016.15 1015.73 1015.40 1015.13 1014.92 1014.70 1014.34 1014.11 1013.94 1013.68 1013.40 1013.21 1013.06 1013.00 1012.62 1012.66 1012.31 1012.67 1012.96 1013.37 1013.64 1013.33 1013.09 1012.61 1012.29 1012.15 1012.00 1010.54 1009.58 1009.18 1008.33 1007.96 1007.91 1008.32 1008.82 1009.47 1010.04 1011.10 1012.05 1012.42 1014.25
1017.61 1017.22 1016.84 1016.43 1016.04 1015.62 1015.30 1015.03 1014.79 1014.59 1014.37 1014.10 1013.86 1013.66 1013.46 1013.30 1013.01 1012.61 1012.98 1012.74 1012.68 1013.07 1013.37 1013.63 1013.77 1013.95 1013.44 1012.63 1012.41 1011.87 1011.46 1010.08 1009.26 1008.75 1008.39 1008.89 1008.67 1009.06 1009.47 1009.90 1010.88 1012.13 1013.53 1014.23 1014.62
1017.58 1017.24 1016.82 1016.43 1015.95 1015.54 1015.16 1014.87 1014.62 1014.46 1014.29 1014.08 1013.81 1013.65 1013.51 1013.39 1013.02 1013.32 1013.35 1013.01 1013.07 1013.16 1013.28 1013.72 1014.03 1014.64 1013.79 1012.69 1012.35 1011.70 1011.19 1009.93 1008.65 1007.95 1007.89 1008.62 1008.76 1009.06 1009.54 1010.16 1010.36 1011.78 1013.53 1014.57 1015.12
1017.59 1017.25 1016.90 1016.46 1015.89 1015.46 1015.06 1014.74 1014.46 1014.25 1014.16 1014.03 1013.82 1013.58 1013.42 1013.46 1013.62 1013.80 1013.68 1013.67 1013.43 1013.26 1013.58 1014.30 1014.33 1014.98 1014.31 1012.44 1011.94 1011.66 1011.12 1009.93 1008.75 1008.26 1008.33 1008.73 1008.79 1009.12 1009.72 1010.35 1010.06 1010.82 1012.76 1014.18 1015.06
1017.56 1017.26 1016.87 1016.41 1015.84 1015.39 1015.02 1014.62 1014.32 1014.13 1014.03 1013.88 1013.72 1013.59 1013.58 1013.27 1014.04 1014.15 1013.90 1013.83 1013.76 1013.84 1013.81 1014.11 1014.97 1015.46 1013.82 1012.29 1011.85 1011.43 1010.39 1010.00 1009.19 1008.59 1008.28 1008.59 1009.30 1009.86 1010.47 1010.42 1010.56 1011.38 1012.69 1013.99 1014.77
1017.49 1017.20 1016.86 1016.39 1015.82 1015.39 1014.98 1014.62 1014.30 1014.19 1014.09 1013.82 1013.73 1013.78 1013.78 1013.91 1014.43 1014.50 1014.20 1013.90 1013.90 1013.85 1014.23 1014.09 1015.27 1015.42 1014.72 1012.01 1011.28 1010.73 1010.50 1010.14 1009.98 1009.06 1008.62 1009.17 1009.71 1009.80 1010.75 1010.48 1011.06 1011.72 1012.61 1013.78 1014.47
1017.49 1017.19 1016.85 1016.38 1015.80 1015.29 1014.90 1014.57 1014.37 1014.22 1014.04 1013.75 1013.68 1013.66 1013.82 1014.90 1014.46 1014.38 1014.15 1013.99 1013.86 1014.14 1014.30 1013.95 1014.79 1015.68 1013.67 1011.92 1010.59 1010.24 1010.79 1010.60 1010.26 1009.41 1009.58 1010.10 1010.55 1010.46 1010.57 1010.92 1011.53 1012.08 1012.71 1013.54 1013.99
1017.55 1017.23 1016.85 1016.43 1015.83 1015.23 1014.81 1014.59 1014.35 1014.14 1013.82 1013.49 1013.50 1013.45 1014.20 1014.50 1014.27 1013.98 1013.80 1013.86 1014.09 1014.07 1013.92 1014.02 1014.51 1014.73 1012.92 1010.78 1010.28 1010.65 1011.08 1011.08 1010.61 1010.10 1010.17 1010.51 1010.83 1011.07 1011.01 1011.25 1011.88 1012.40 1013.03 1013.57 1013.82
1017.62 1017.28 1016.83 1016.51 1015.91 1015.28 1014.83 1014.62 1014.24 1013.88 1013.66 1013.34 1013.30 1012.97 1013.88 1014.34 1014.21 1013.93 1013.81 1013.67 1014.09 1014.26 1014.16 1014.38 1013.63 1012.43 1010.60 1010.90 1010.73 1010.73 1011.07 1011.23 1011.42 1010.94 1010.69 1010.93 1011.00 1011.14 1011.21 1011.40 1012.15 1012.62 1013.21 1013.67 1013.87
1017.52 1017.20 1016.77 1016.42 1015.96 1015.40 1014.90 1014.54 1014.00 1013.85 1013.00 1012.92 1012.40 1012.86 1013.72 1013.89 1013.73 1013.75 1013.77 1013.77 1013.61 1013.81 1013.55 1013.57 1013.00 1012.11 1011.16 1010.86 1010.75 1010.43 1010.74 1011.20 1011.30 1011.19 1010.84 1011.21 1011.24 1011.37 1011.54 1011.52 1012.09 1012.60 1013.22 1013.80 1014.02
1017.40 1016.99 1016.70 1016.26 1015.87 1015.47 1014.75 1014.42 1014.45 1014.16 1013.44 1013.41 1013.45 1013.25 1013.41 1013.29 1013.40 1013.80 1013.74 1013.68 1013.01 1012.78 1012.20 1012.15 1012.05 1011.87 1010.91 1010.90 1010.76 1010.20 1010.58 1010.99 1011.01 1011.06 1011.09 1011.28 1011.62 1011.82 1011.87 1011.85 1012.01 1012.55 1012.92 1013.60 1013.95
1017.38 1016.95 1016.60 1016.33 1015.92 1015.31 1015.19 1015.03 1015.65 1015.85 1014.74 1013.72 1013.39 1013.54 1013.24 1012.82 1013.08 1013.46 1013.44 1013.35 1012.73 1012.41 1011.85 1012.41 1012.40 1012.50 1011.77 1010.94 1010.63 1010.56 1010.68 1011.30 1011.60 1011.37 1011.53 1011.50 1011.95 1012.04 1012.20 1012.22 1012.13 1012.32 1012.71 1013.36 1013.86
1017.28 1016.94 1016.51 1016.22 1015.93 1015.56 1015.50 1016.14 1016.10 1015.93 1015.15 1014.12 1013.74 1013.53 1013.65 1013.56 1013.24 1013.01 1013.04 1012.70 1012.00 1012.26 1012.68 1012.88 1013.10 1012.46 1011.74 1011.30 1011.44 1011.34 1010.92 1011.27 1011.47 1011.75 1011.66 1012.05 1012.58 1012.53 1012.48 1012.42 1012.52 1012.66 1013.08 1013.52 1014.06
1017.19 1016.86 1016.41 1016.06 1016.25 1015.65 1015.98 1016.41 1016.24 1016.06 1015.49 1014.67 1013.47 1013.56 1013.44 1013.24 1013.22 1013.13 1013.20 1013.33 1013.07 1013.11 1013.05 1013.59 1013.29 1012.53 1012.19 1011.85 1012.86 1012.34 1012.07 1011.25 1011.59 1012.14 1012.71 1012.93 1013.29 1012.92 1012.85 1013.05 1013.19 1013.33 1013.54 1014.14 1014.68
1017.14 1016.74 1016.31 1015.99 1015.82 1015.86 1016.54 1016.32 1016.20 1016.21 1015.87 1015.14 1013.90 1013.10 1012.90 1013.08 1013.29 1013.10 1013.08 1012.79 1013.01 1013.00 1013.65 1014.99 1014.39 1013.73 1013.38 1013.57 1013.76 1013.57 1012.66 1012.16 1012.28 1012.83 1013.42 1013.81 1013.89 1013.24 1013.01 1013.36 1013.52 1013.55 1014.04 1014.61 1015.06
1017.10 1016.71 1016.24 1015.78 1015.74 1016.46 1016.37 1016.26 1016.19 1016.43 1016.42 1015.51 1014.35 1013.74 1013.00 1013.02 1013.07 1012.85 1012.91 1013.08 1013.46 1013.63 1014.00 1014.94 1015.02 1015.07 1014.46 1014.62 1014.21 1013.73 1013.38 1012.91 1012.84 1013.81 1014.86 1014.78 1014.77 1014.03 1013.46 1013.07 1013.31 1013.64 1014.26 1014.88 1015.34
1017.04 1016.78 1016.12 1015.69 1016.03 1016.13 1016.29 1016.38 1016.68 1016.58 1016.72 1016.01 1015.12 1014.41 1013.59 1013.58 1013.43 1013.43 1013.32 1013.60 1014.16 1014.39 1014.59 1014.91 1015.34 1015.22 1015.26 1014.92 1014.31 1013.94 1013.79 1014.49 1015.25 1015.61 1016.01 1015.62 1015.26 1013.91 1013.37 1013.16 1012.95 1013.63 1014.39 1014.92 1015.29
1016.99 1016.86 1016.41 1016.14 1016.06 1016.16 1016.21 1016.43 1016.76 1017.23 1016.60 1016.01 1015.24 1014.48 1014.17 1014.24 1013.95 1013.70 1013.66 1014.31 1014.66 1014.79 1014.83 1015.18 1015.82 1016.03 1015.90 1015.85 1015.63 1015.06 1015.02 1015.72 1016.35 1016.95 1016.58 1016.22 1015.25 1013.99 1013.63 1013.56 1013.70 1013.90 1014.40 1015.06 1015.44
1016.96 1016.57 1015.97 1016.08 1016.21 1016.28 1016.24 1016.82 1017.66 1017.37 1017.00 1016.30 1015.21 1014.59 1014.22 1014.42 1014.53 1014.03 1014.94 1015.50 1015.79 1015.60 1015.66 1015.30 1016.32 1016.54 1016.46 1016.25 1016.16 1015.57 1015.89 1016.47 1016.84 1017.04 1016.90 1016.15 1014.99 1014.47 1014.25 1014.41 1014.44 1014.66 1014.99 1015.26 1015.60
1016.99 1016.25 1016.07 1015.99 1016.23 1016.19 1016.29 1017.34 1017.51 1017.44 1017.12 1016.45 1015.69 1015.16 1014.75 1014.73 1014.56 1014.74 1015.50 1016.49 1016.40 1016.17 1016.01 1015.75 1016.26 1016.66 1016.44 1016.44 1016.26 1016.09 1016.45 1016.75 1017.05 1017.60 1017.53 1016.38 1015.40 1015.02 1014.78 1014.41 1014.50 1014.68 1014.87 1015.04 1015.35
1017.05 1016.35 1016.17 1016.07 1016.34 1016.18 1016.98 1017.52 1017.52 1017.39 1017.29 1016.85 1016.26 1015.51 1015.13 1015.15 1014.98 1015.41 1016.30 1016.97 1016.94 1016.58 1016.09 1016.17 1016.01 1016.89 1016.74 1016.63 1016.69 1016.51 1016.43 1016.63 1017.14 1017.44 1017.77 1016.78 1015.81 1014.53 1014.36 1014.05 1014.11 1014.39 1014.64 1014.89 1015.41
1016.69 1016.22 1015.94 1016.04 1016.32 1016.21 1016.89 1016.86 1017.31 1017.07 1017.12 1016.88 1016.70 1016.14 1015.77 1015.52 1015.38 1015.66 1016.41 1016.95 1017.09 1016.82 1016.66 1016.86 1016.73 1016.98 1017.29 1017.21 1017.06 1016.83 1016.71 1016.76 1017.36 1017.86 1017.57 1017.21 1015.69 1014.47 1014.34 1014.02 1013.93 1014.23 1014.40 1014.82 1015.16
1016.78 1015.93 1015.58 1015.57 1016.11 1016.57 1017.08 1017.16 1017.04 1016.98 1016.73 1016.69 1016.56 1016.53 1016.20 1015.84 1016.02 1016.18 1016.67 1017.41 1017.45 1017.36 1017.42 1017.19 1017.22 1017.52 1017.75 1017.91 1017.46 1017.22 1016.98 1017.17 1017.42 1017.70 1017.62 1017.23 1015.61 1014.59 1014.40 1014.37 1014.29 1014.35 1014.46 1014.76 1015.06
1017.13 1016.13 1015.64 1015.57 1015.81 1015.94 1016.40 1016.69 1017.04 1017.15 1017.05 1016.86 1016.52 1016.43 1016.23 1016.02 1016.16 1016.32 1016.68 1017.35 1017.58 1017.69 1017.77 1017.66 1017.58 1017.86 1018.26 1018.02 1017.81 1017.44 1017.35 1017.66 1018.05 1018.49 1017.77 1016.77 1015.75 1015.45 1015.08 1014.91 1014.78 1014.63 1014.54 1014.77 1015.05
1017.32 1017.05 1016.91 1016.30 1016.18 1016.24 1016.20 1016.45 1016.70 1017.01 1017.20 1017.10 1016.81 1016.58 1016.46 1016.22 1016.29 1016.62 1016.87 1017.17 1017.51 1017.66 1017.51 1017.69 1018.18 1018.40 1018.37 1018.03 1017.69 1017.45 1017.30 1017.38 1017.83 1017.75 1018.06 1016.58 1015.97 1015.46 1015.23 1015.30 1015.45 1015.27 1015.22 1015.44 1015.67
1017.84 1017.66 1017.26 1016.86 1016.56 1016.31 1016.45 1016.39 1016.52 1016.77 1016.85 1016.98 1017.00 1017.03 1017.09 1017.06 1017.28 1017.38 1017.55 1017.50 1017.82 1018.06 1018.02 1018.26 1018.59 1018.63 1018.43 1017.95 1017.95 1017.71 1017.19 1017.22 1017.22 1017.03 1016.75 1016.63 1015.92 1015.59 1015.36 1015.41 1015.68 1015.75 1015.81 1015.94 1015.98
1017.80 1017.59 1017.58 1017.17 1016.80 1016.52 1016.20 1016.26 1016.55 1017.01 1017.37 1017.25 1017.26 1017.45 1017.59 1017.85 1017.94 1018.10 1018.19 1018.22 1018.28 1018.46 1018.48 1018.79 1019.15 1019.59 1019.23 1018.76 1018.18 1017.18 1016.05 1016.42 1016.59 1016.57 1016.61 1016.91 1016.47 1016.32 1016.48 1016.70 1016.85 1016.92 1016.86 1016.85 1016.77
Wind_Speed
12 13 14 15 16 16 16 16 15 12 13 10 11 9 8 2 3 5 6 3 6 5 1 3 3 9 8 10 10 12 4 13 16 24 17 5 6 3 1 7 6 7 6 17 15
12 14 15 16 17 17 17 17 14 12 11 10 10 9 7 4 7 3 6 4 4 4 6 5 7 6 6 14 7 6 6 12 15 19 15 13 7 8 4 8 6 14 13 12 12
12 14 15 17 18 18 18 16 13 10 10 10 11 9 7 6 2 7 7 9 10 5 5 3 6 4 12 12 15 8 6 11 19 12 15 11 8 9 6 6 10 15 15 13 12
12 13 15 16 18 19 18 14 10 7 7 9 10 10 8 7 3 8 6 9 4 5 9 8 5 2 6 21 19 10 20 14 11 2 1 17 7 6 5 3 9 17 20 16 13
13 14 14 15 17 18 16 12 9 6 5 7 9 9 5 1 6 8 4 5 4 1 9 6 7 2 11 19 18 17 10 6 6 3 10 5 6 8 7 7 9 17 17 15 12
13 14 14 15 16 17 14 10 7 7 6 7 8 7 5 5 5 8 6 3 5 4 5 9 5 3 9 15 17 13 5 3 3 3 5 7 4 7 5 7 9 11 11 14 13
13 14 14 15 16 15 12 8 5 5 8 10 9 5 12 4 1 3 3 2 3 2 4 6 8 8 9 20 13 9 6 2 6 4 4 5 2 3 8 8 9 9 9 10 11
13 14 15 15 16 15 10 8 9 7 9 9 6 5 3 1 4 4 4 0 6 4 2 5 12 19 24 5 6 7 7 6 3 5 3 2 6 7 7 9 9 9 8 8 8
14 14 15 14 15 14 11 10 10 11 10 10 5 5 5 4 2 2 1 3 4 1 4 7 13 6 3 10 6 8 6 7 4 6 5 5 9 7 6 8 9 9 8 8 7
13 14 15 15 12 13 13 7 9 12 6 8 6 4 7 7 3 3 5 4 2 5 9 9 8 5 4 4 6 7 10 8 7 7 5 5 3 8 5 6 10 10 9 8 8
12 13 14 15 14 11 9 3 4 1 6 7 6 7 6 4 2 4 1 1 4 3 2 3 2 3 5 4 6 9 13 9 7 1 5 7 8 8 6 3 6 9 9 9 9
14 12 13 14 15 14 5 3 2 1 3 4 5 6 5 4 3 4 4 4 3 2 3 7 7 4 8 3 3 8 11 9 6 3 3 6 7 8 7 5 5 5 9 10 9
15 13 11 13 12 5 5 3 3 3 3 3 2 3 2 5 1 5 5 8 7 3 9 2 3 8 4 7 11 6 4 6 7 4 3 7 3 7 4 2 3 4 5 6 7
15 13 11 12 2 0 3 2 2 2 1 8 6 3 2 3 1 2 2 1 3 2 7 5 10 6 7 7 7 4 10 6 13 6 4 2 4 6 8 6 6 7 3 5 7
14 12 10 5 3 1 3 2 1 2 4 9 5 3 4 3 6 3 2 3 7 2 2 3 8 9 7 6 8 0 8 5 5 3 6 3 4 4 10 7 7 8 8 8 7
12 11 9 3 3 2 1 2 2 4 3 6 2 6 4 7 3 2 1 2 1 7 10 4 3 4 5 2 3 3 3 2 2 4 3 2 4 5 4 4 8 7 8 8 7
10 10 6 2 2 2 2 2 5 6 1 7 4 6 7 6 5 3 4 6 4 5 3 3 4 2 4 3 2 3 2 3 5 5 5 1 3 5 4 3 6 10 9 8 7
9 8 2 2 0 1 3 1 8 4 2 1 3 10 3 7 1 5 2 5 10 6 3 3 3 8 10 4 2 4 2 5 4 4 4 1 3 5 5 7 6 8 7 7 6
6 2 2 2 1 1 2 7 2 4 3 6 6 4 3 3 2 2 6 6 5 9 5 3 3 3 3 4 3 4 5 0 4 1 5 3 3 3 3 3 1 4 5 5 6
3 2 2 1 1 2 4 4 2 1 2 4 5 2 5 5 6 7 6 5 6 6 5 6 3 1 0 3 2 4 2 2 3 2 1 4 2 5 4 6 7 7 7 7 6
3 3 1 3 1 1 5 3 3 2 4 5 5 4 4 4 3 4 5 3 7 8 8 5 2 2 2 5 3 2 2 1 2 3 3 1 5 2 7 4 8 6 7 7 7
2 2 2 3 2 3 2 3 3 2 2 1 3 4 5 5 4 4 3 1 4 4 4 4 3 2 3 3 2 2 3 2 5 2 1 3 8 1 5 5 6 4 6 6 7
3 1 3 2 1 2 2 2 1 3 2 1 2 3 3 3 3 5 4 2 5 4 3 5 3 2 2 1 1 2 1 3 2 2 4 4 8 3 3 3 3 1 0 6 7
3 1 2 2 1 4 3 2 3 0 1 1 1 4 3 1 2 3 3 2 3 4 4 4 0 5 6 5 4 2 3 2 1 1 4 6 2 3 3 2 2 5 6 4 5
2 1 1 1 2 3 3 1 3 3 2 2 3 1 3 1 1 3 1 4 1 1 2 4 4 4 4 6 2 3 5 7 9 9 1 5 10 8 7 9 9 8 8 8 6
2 2 2 1 0 2 2 2 2 2 3 4 2 2 3 3 4 4 5 4 5 2 4 2 1 2 4 5 3 7 9 10 9 9 13 10 15 3 5 5 7 6 6 5 4
2 3 0 2 1 2 1 4 3 2 1 5 4 3 1 3 5 5 5 5 4 5 2 2 2 3 4 3 6 8 5 11 5 3 5 6 5 6 7 7 7 7 7 7 8
Wind_Direction
349 340 338 341 340 336 332 329 332 338 349 347 349 358 1 287 175 187 195 46 345 74 285 129 280 255 272 217 227 223 249 214 208 205 226 322 122 38 320 125 89 52 44 116 125
341 336 335 337 335 331 331 327 325 320 334 341 341 341 347 340 256 204 12 59 75 102 195 187 213 275 230 195 216 194 218 227 225 193 202 196 183 114 161 124 99 97 91 105 117
335 333 334 336 331 332 334 333 326 319 314 329 332 333 326 312 293 44 40 93 101 130 200 140 54 335 222 187 205 209 237 237 230 228 175 172 189 151 177 162 159 148 136 138 136
329 331 334 335 331 335 342 345 343 332 306 312 321 320 315 284 48 19 48 65 88 139 136 109 79 185 268 194 198 188 234 264 255 45 97 183 204 148 248 91 58 144 140 143 154
328 331 336 335 332 337 344 347 357 357 335 315 313 316 309 123 27 7 43 71 71 85 109 97 125 29 254 187 180 214 234 314 30 14 115 189 165 180 111 107 93 122 131 148 164
332 334 337 337 335 340 342 340 356 1 343 336 327 334 257 66 15 4 22 10 54 36 133 111 129 224 311 237 184 200 197 233 276 170 107 131 161 141 109 120 112 132 139 152 169
338 339 339 340 337 343 338 324 315 325 316 323 324 288 52 21 311 179 270 297 86 54 145 127 125 216 268 216 196 132 122 165 232 110 115 180 78 10 138 128 131 135 150 156 172
345 341 340 341 337 341 343 331 296 283 291 299 309 284 66 180 256 309 92 133 108 40 53 170 222 251 247 174 150 139 132 157 193 173 84 100 179 129 156 138 141 138 143 155 171
341 339 337 340 336 333 337 326 295 284 258 280 271 204 71 145 296 324 261 308 98 249 273 243 264 257 301 208 141 193 163 159 141 233 135 191 135 153 171 164 143 145 146 155 150
336 336 334 335 334 326 320 292 297 298 212 254 319 76 69 0 85 338 51 85 283 225 236 205 209 183 209 180 177 179 184 152 151 198 178 178 116 133 193 203 155 154 153 167 162
332 329 329 330 328 324 322 251 276 126 27 41 14 66 41 334 186 36 21 287 267 291 258 198 190 50 218 6 336 189 194 159 101 63 165 174 137 158 167 250 187 164 159 169 165
331 324 323 325 324 312 279 34 35 355 65 55 97 102 37 326 64 86 204 284 218 263 328 48 56 12 290 304 323 291 228 112 66 80 50 118 141 158 156 200 224 180 165 170 155
335 326 323 323 320 303 69 64 331 304 272 107 145 40 321 308 28 347 354 308 334 22 88 105 11 298 283 33 6 50 72 161 133 136 1 112 230 140 163 122 56 350 58 54 103
334 329 329 329 320 31 67 41 301 311 49 350 4 74 254 241 201 354 46 301 146 318 60 35 347 277 66 63 14 43 326 75 129 117 159 103 241 188 165 204 184 195 161 139 97
332 326 322 352 314 29 38 325 287 253 55 329 348 307 268 33 304 43 241 334 24 159 125 328 1 6 49 17 316 131 321 31 148 120 95 205 80 281 136 187 200 184 144 118 120
335 323 315 263 99 63 325 287 254 34 8 327 331 350 2 24 25 330 184 135 59 60 70 109 240 13 24 311 329 248 254 227 360 103 47 32 111 267 192 211 159 132 131 133 141
334 316 334 293 92 166 180 226 49 69 340 330 334 330 309 1 28 9 52 49 33 53 54 91 39 129 359 287 246 271 337 36 24 18 212 198 65 240 132 13 137 145 147 153 149
324 309 314 36 108 218 211 142 65 220 49 318 281 298 56 3 132 2 43 44 28 348 17 104 351 15 333 44 321 359 48 124 150 171 224 77 232 250 98 64 52 66 100 135 155
334 210 239 90 242 242 245 59 34 26 336 337 275 310 105 81 240 330 66 23 40 9 22 57 51 162 29 351 343 322 48 298 95 352 55 210 247 37 94 105 124 148 160 189 192
286 236 95 20 234 247 68 107 110 269 305 276 0 356 24 40 22 27 44 358 345 7 318 333 92 27 118 225 44 53 214 64 352 69 304 281 212 229 291 212 195 196 192 196 170
256 270 95 120 358 332 89 70 95 45 346 332 356 334 47 353 52 57 26 79 357 334 305 355 148 280 271 19 19 9 103 162 154 117 153 7 277 128 207 217 188 196 186 178 164
298 268 157 135 46 50 93 119 226 122 157 309 285 334 341 354 26 107 108 68 339 279 7 54 297 87 76 116 26 335 352 322 101 339 50 118 277 124 96 69 64 175 160 162 165
291 12 203 151 45 71 171 105 317 188 133 124 12 345 328 352 341 17 43 4 3 17 9 327 35 41 337 31 189 319 126 9 66 51 233 119 265 133 130 138 150 271 181 173 160
305 333 351 70 259 108 158 155 140 38 79 256 153 215 256 34 70 42 70 103 357 60 302 281 265 137 167 199 206 261 167 182 265 71 276 230 290 183 139 54 300 209 203 239 198
3 71 359 349 56 47 346 239 148 174 274 268 200 359 14 323 182 81 37 169 130 48 322 35 30 54 288 281 266 244 253 208 199 226 217 289 328 344 17 36 3 25 22 13 344
31 345 227 69 166 270 127 199 224 137 203 160 281 73 345 357 21 1 350 31 54 149 352 22 91 39 297 55 318 275 254 244 252 244 244 267 283 82 60 57 22 28 29 10 344
206 161 218 136 206 254 188 150 156 95 53 5 19 319 230 51 11 1 343 331 323 348 352 355 1 31 286 26 312 292 234 208 206 238 221 240 250 14 12 12 356 354 356 341 353